Regional Weather Roundup
Issued by NWS Columbia, SC

Home | Current Version | Previous Version | Text Only | Print | Product List | Glossary On
Versions: 1 2 3 4 5 6 7 8 9 10 11 12 13 14 15 16 17 18 19 20 21 22 23 24 25 26 27 28 29 30 31 32 33 34 35 36 37 38 39 40 41 42 43 44 45 46 47 48 49 50
000
ASUS42 KCAE 031110
RWRCAE
REGIONAL WEATHER ROUNDUP
NATIONAL WEATHER SERVICE COLUMBIA SC
600 AM EST TUE MAR 03 2015

NOTE: "FAIR" INDICATES FEW OR NO CLOUDS BELOW 12,000 FEET WITH NO
SIGNIFICANT WEATHER AND/OR OBSTRUCTIONS TO VISIBILITY.

NOT ALL STATIONS ARE QUALITY CONTROLLED BY THE NATIONAL
WEATHER SERVICE. USE DATA WITH CAUTION...ESPECIALLY
DEWPOINT OBSERVATIONS.

SCZ001>056-GAZ040-063>065-077-031200-
...UPSTATE SOUTH CAROLINA...

CITY           SKY/WX    TMP DP  RH WIND       PRES   REMARKS
ANDERSON       CLOUDY    49  32  52 NE8       30.24S
LIBERTY        LGT RAIN  45  39  78 MISG      30.25F
SPARTANBURG    CLOUDY    48  30  49 NE12      30.28R
CLEMSON        CLOUDY    49  34  56 NE12      30.26S
GREENVILLE     CLOUDY    47  28  47 NE12      30.26F
GREENWOOD      CLOUDY    51  40  65 NE7       30.26R
GREER          CLOUDY    46  29  51 NE9       30.27R
ROCK HILL      CLOUDY    45  27  49 NE3       30.30R
CHESTER        CLOUDY    48  32  53 NE7       30.30R
LAURENS        CLOUDY    50  39  66 NE8       30.26S


...CENTRAL SOUTH CAROLINA...

CITY           SKY/WX    TMP DP  RH WIND       PRES   REMARKS
COLUMBIA APT   CLOUDY    55  51  86 E6        30.26R FOG
COLUMBIA OWENS CLOUDY    55  50  83 VRB5      30.27R
DARLINGTON     CLOUDY    45  30  57 E10G18    30.32F
FLORENCE       CLOUDY    45  37  73 E13       30.31S
MCENTIRE ANGB  CLOUDY    53  51  93 E10G17    30.26S
ORANGEBURG     CLOUDY    54  49  83 E7        30.26R
SUMTER SHAW    CLOUDY    51  47  86 E9        30.26R
NEWBERRY       CLOUDY    50  41  71 NE9       30.29R
AIKEN          CLOUDY    55  54  94 E6        30.27R
BARNWELL       CLOUDY    57  54  88 E8        30.24S
MANNING        CLOUDY    52  46  82 E3        30.28R
CAMDEN         CLOUDY    50  46  87 E7G13     30.29R
LANCASTER      CLOUDY    46  34  61 NE3       30.30R
WINNSBORO      CLOUDY    48  43  81 NE7       30.26R


...EASTERN AND COASTAL SOUTH CAROLINA...

CITY           SKY/WX    TMP DP  RH WIND       PRES   REMARKS
N MYRTLE BCH   CLOUDY    46  35  65 NE12      30.30R
CONWAY         CLOUDY    45  37  76 NE7       30.33R
MARION         CLOUDY    43  32  65 NE6       30.34R
HARTSVILLE     CLOUDY    43  39  87 E13       30.30F
FLORENCE       CLOUDY    45  37  73 E13       30.31S
DARLINGTON     CLOUDY    45  30  57 E10G18    30.32F
CHARLESTON APT CLOUDY    56  51  84 E9        30.25R
MOUNT PLEASANT CLOUDY    54  48  82 NE7       30.26S
WALTERBORO     CLOUDY    57  55  94 E3        30.26R
BEAUFORT       CLOUDY    55  53  93 NE5       30.24R


...EASTERN GEORGIA...

CITY           SKY/WX    TMP DP  RH WIND       PRES   REMARKS
AUGUSTA BUSH F CLOUDY    58  54  86 E7        30.23R
AUGUSTA DANIEL CLOUDY    59  54  83 E6        30.24R
THOMSON        CLOUDY    58  58 100 CALM      30.27R
WASHINGTON     CLOUDY    59  59 100 E5        30.22R
CLAXTON        CLOUDY    59  59 100 CALM      30.22S FOG
SYLVANIA       HVY RAIN  56  56 100 SE3       30.23R
STATESBORO     LGT RAIN  57  57 100 SE3       30.23R
SAVANNAH       FOG       56  55  97 E6        30.23R VSB 1/4


...SOUTHERN NORTH CAROLINA...

CITY           SKY/WX    TMP DP  RH WIND       PRES   REMARKS
CHARLOTTE      CLOUDY    46  19  34 NE6       30.31R
MONROE         CLOUDY    45  32  60 NE7       30.31R
WADESBORO      CLOUDY    44  36  75 E6        30.33R
ROCKINGHAM       N/A     42  32  70 E6        30.33R
RUTHERFORDTON  CLOUDY    44  33  65 CALM      30.31R
ASHEVILLE      CLOUDY    41  35  79 S6        30.26S

$$


USA.gov is the U.S. government's official web portal to all federal, state and local government web resources and services.